Regional Weather Roundup
Issued by NWS

Home | Current Version | Previous Version | Graphics & Text | Print | Product List | Glossary Off
Versions: 1 2 3 4 5 6 7 8 9 10 11 12 13 14 15 16 17 18 19 20 21 22 23 24 25 26 27 28 29 30 31 32 33 34 35 36 37 38 39 40 41 42 43 44 45 46 47 48 49 50

000
ASUS43 KDTX 200310
RWRMI
MICHIGAN HOURLY REGIONAL WEATHER ROUNDUP
NATIONAL WEATHER SERVICE DETROIT/PONTIAC MI
1000 PM EST FRI DEC 19 2014

NOTE: "FAIR" INDICATES FEW OR NO CLOUDS BELOW 12,000 FEET WITH NO
SIGNIFICANT WEATHER AND/OR OBSTRUCTION TO VISIBILITY.

MIZ047>049-052>055-059>063-066>070-074>076-081>083-200400-
SOUTHEAST LOWER MICHIGAN

CITY           SKY/WX    TMP DP  RH WIND       PRES   REMARKS
ADRIAN         CLOUDY    30  22  72 CALM      30.28S
ALMA           CLEAR     19  17  93 CALM      30.28F
ANN ARBOR      CLOUDY    26  21  81 NE6       30.27F WCI  19
BAD AXE        CLEAR     15  15  98 CALM      30.31S
CARO           CLEAR     18  16  94 CALM      30.29F
DETROIT CITY   CLEAR     27  18  69 N3        30.29F
DETROIT        MOCLDY    23  19  85 N3        30.29F
FLINT          CLEAR     21  16  81 CALM      30.28F
GROSSE ILE     CLOUDY    27  21  80 N5        30.27F WCI  21
HILLSDALE      CLEAR     26  22  87 CALM      30.24S
HOWELL         CLEAR     19  18  96 CALM      30.25F

CITY           SKY/WX    TMP DP  RH WIND       PRES   REMARKS
JACKSON        CLEAR     25  20  81 E3        30.25F
LAMBERTVILLE   CLOUDY    32  27  80 CALM      30.28S
LANSING        CLEAR     19  16  88 CALM      30.27F
LAPEER         FAIR      20  19  96 CALM      30.29F
MASON          CLEAR     22  20  91 CALM      30.26S
MONROE         CLOUDY    28  23  80 CALM      30.27F
MT. CLEMENS    CLEAR     24  22  94 NW1       30.27F
PONTIAC        PTCLDY    20  17  88 N3        30.26F
PORT HOPE        N/A     24  19  81 SW5       30.29F WCI  18
PORT HURON     CLEAR     23  21  93 CALM      30.29F
TRI CITIES     CLEAR     23  17  78 CALM      30.29F
TROY           CLEAR     27  20  76 NW3       30.29F
SAGINAW HB     CLEAR     23  19  86 CALM      30.29F
$$
MIZ043>046-050>051-056>058-064>065-071>073-077>080-200400-
SOUTHWEST LOWER MICHIGAN

CITY           SKY/WX    TMP DP  RH WIND       PRES   REMARKS
BATTLE CREEK   CLEAR     21  17  84 CALM      30.25F
BENTON HARBOR  CLOUDY    29  22  75 CALM      30.27S
BIG RAPIDS     CLEAR     18  17  94 CALM      30.25F
COLDWATER      PTCLDY    20  19  96 CALM      30.26R FOG
FREMONT        FAIR      22  18  85 CALM      30.25F
HOLLAND        PTCLDY    23  19  85 CALM      30.27F
GRAND RAPIDS   PTCLDY    22  18  85 SE3       30.26F
IONIA          FAIR      22  21  97 E3        30.25F
KALAMAZOO      CLEAR     24  19  81 CALM      30.26R
LUDINGTON      PTCLDY    18  15  89 CALM      30.27F
MARSHALL       CLEAR     21  19  91 S7        30.25S WCI  13
MOUNT PLEASANT CLEAR     19  17  92 CALM      30.27F
MUSKEGON       PTCLDY    25  18  74 NE6       30.27F WCI  18
SOUTH HAVEN    PTCLDY    23  20  87 CALM      30.27S
$$
MIZ016>042-200400-
NORTHERN LOWER MICHIGAN

CITY           SKY/WX    TMP DP  RH WIND       PRES   REMARKS
ALPENA         CLEAR     13   9  84 CALM      30.30F
BEAVER ISLAND  CLEAR     12  10  92 CALM      30.29F
BELLAIRE       CLOUDY    26  23  89 CALM      30.30S
CADILLAC         N/A     14  13  94 CALM      30.25S FOG
CHARLEVOIX     CLOUDY    24  22  93 CALM      30.32S
FRANKFORT      CLOUDY    28  26  91 CALM      30.28F
GAYLORD        CLEAR     11   8  88 CALM      30.25S
GRAYLING       CLEAR      8   6  89 CALM      30.28S
HARBOR SPRINGS CLOUDY    15  13  92 NE3       30.29S
HOUGHTON LAKE  CLEAR     12   9  87 CALM      30.27S
MANISTEE       CLOUDY    27  21  80 E6        30.28F WCI  20
OSCODA         CLEAR     11   9  92 CALM      30.30S
PELLSTON       CLEAR      7   3  84 CALM      30.30F
ROGERS CITY    CLEAR     14  14  99 SW3       30.31F
TRAVERSE CITY  CLOUDY    28  20  71 SW3       30.28F
$$
MIZ007>008-015-200400-
EASTERN UPPER MICHIGAN

CITY           SKY/WX    TMP DP  RH WIND       PRES   REMARKS
KINROSS        PTCLDY    10   9  92 CALM      30.29S
MACKINAC ISLAN CLEAR     17  16  97 CALM      30.29S
NEWBERRY       CLOUDY    18  17  96 CALM      30.27S
S. S. MARIE    PTCLDY    14   9  80 CALM      30.29R
MUNISING         N/A     29  20  69 SW3       30.27F
$$
MIZ004>006-011>014-085-200400-
CENTRAL UPPER MICHIGAN

CITY           SKY/WX    TMP DP  RH WIND       PRES   REMARKS
MANISTIQUE     CLOUDY    27  22  82 W3        30.28F
ESCANABA       CLEAR     19  16  86 CALM      30.27F
MENOMINEE      CLEAR     18  16  93 CALM      30.26F
SAWYER-GWINN   PTCLDY    23  19  86 S3        30.24S
$$
MIZ001>003-009>011-084-200400-
WESTERN UPPER MICHIGAN

CITY           SKY/WX    TMP DP  RH WIND       PRES   REMARKS
IRON MOUNTAIN  CLOUDY    13   9  84 CALM      30.22F
HOUGHTON       CLOUDY    25  19  78 S6        30.22S WCI  18
COPPER HARBOR    N/A     28  23  81 CALM      30.24F
IRONWOOD       CLOUDY    23  19  86 S3        30.17S
$$

ABBREVIATIONS USED IN REMARKS
   TC - TEMPERATURE IN CELSIUS
  WCI - WIND CHILL INDEX
   HX - HEAT INDEX
  VSB - VISIBILITY



USA.gov is the U.S. government's official web portal to all federal, state and local government web resources and services.